User: anonymous   Login
Location: Fort Worth, Tx
(32.7431°N, 97.3695°W)
Time: 18:34:58
(UTC-04:00)
Language:

Max Valier Satellite - Orbit

View from above orbital plane
View from above orbital plane
View from above satellite
View from above satellite

Ground track
Ground track

The orbit data is extracted from the following two-line orbital elements,

1 42778U 17036P   23089.84839575  .00033649  00000-0  98567-3 0  9999
2 42778  97.1683 126.6963 0009178  38.8005 321.3897 15.35103356320691
Epoch (UTC): 30 March 2023 20:21:41
Eccentricity: 0.0009178
inclination: 97.1683°
perigee height: 454 km
apogee height: 467 km
right ascension of ascending node: 126.6963°
argument of perigee: 38.8005°
revolutions per day: 15.35103356
mean anomaly at epoch: 321.3897°
orbit number at epoch: 32069

The dashed part of the orbit path shows where the satellite is in the earth's shadow,  

DLR